• în Republica Moldova
  • Lista ţărilor
  • Pe 7 zile
  • Temperatura apei
  • Hartă satelitară
  • Meteo pe hartă
  • Widget-uri
  • user-avatar
    Intrare

    Meteo pe oră la Nachiczewan

    Astăzi, 17 Octombrie, Marţi

    Timp Temperatura Precipitaţii Vânt Presiune Umiditate
    00:00 +10°C° 0 mm 4 m/s 685 mmHg 38%
    01:00 +9°C° 0 mm 3 m/s 686 mmHg 39%
    02:00 +9°C° 0 mm 2 m/s 686 mmHg 41%
    03:00 +8°C° 0 mm 3 m/s 685 mmHg 45%
    04:00 +8°C° 0 mm 2 m/s 686 mmHg 46%
    05:00 +8°C° 0 mm 2 m/s 686 mmHg 47%
    06:00 +7°C° 0 mm 2 m/s 687 mmHg 48%
    07:00 +8°C° 0 mm 2 m/s 687 mmHg 45%
    08:00 +9°C° 0 mm 2 m/s 687 mmHg 42%
    09:00 +10°C° 0 mm 2 m/s 688 mmHg 38%
    10:00 +11°C° 0 mm 3 m/s 688 mmHg 36%
    11:00 +13°C° 0 mm 3 m/s 688 mmHg 33%
    12:00 +14°C° 0 mm 3 m/s 688 mmHg 31%
    13:00 +14°C° 0 mm 3 m/s 688 mmHg 30%
    14:00 +16°C° 0 mm 3 m/s 688 mmHg 29%
    15:00 +16°C° 0 mm 3 m/s 688 mmHg 29%
    16:00 +15°C° 0 mm 2 m/s 688 mmHg 31%
    17:00 +15°C° 0 mm 1 m/s 688 mmHg 33%
    18:00 +14°C° 0 mm 1 m/s 688 mmHg 36%
    19:00 +13°C° 0 mm 1 m/s 688 mmHg 37%
    20:00 +13°C° 0 mm 1 m/s 689 mmHg 39%
    21:00 +11°C° 0 mm 0 m/s 689 mmHg 41%
    22:00 +11°C° 0 mm 0 m/s 689 mmHg 42%
    23:00 +12°C° 0 mm 1 m/s 689 mmHg 44%

    Mâine, 18 Octombrie, Miercuri

    Timp Temperatura Precipitaţii Vânt Presiune Umiditate
    00:00 +11°C° 0 mm 1 m/s 689 mmHg 45%
    01:00 +10°C° 0 mm 0 m/s 689 mmHg 47%
    02:00 +9°C° 0 mm 0 m/s 689 mmHg 49%
    03:00 +9°C° 0 mm 0 m/s 689 mmHg 51%
    04:00 +9°C° 0 mm 0 m/s 689 mmHg 52%
    05:00 +8°C° 0 mm 0 m/s 689 mmHg 54%
    06:00 +8°C° 0 mm 0 m/s 689 mmHg 56%
    07:00 +10°C° 0 mm 0 m/s 689 mmHg 51%
    08:00 +13°C° 0 mm 1 m/s 690 mmHg 46%
    09:00 +14°C° 0 mm 1 m/s 690 mmHg 41%
    10:00 +15°C° 0 mm 1 m/s 690 mmHg 39%
    11:00 +18°C° 0 mm 1 m/s 690 mmHg 36%
    12:00 +19°C° 0 mm 1 m/s 690 mmHg 34%
    13:00 +19°C° 0 mm 1 m/s 690 mmHg 32%
    14:00 +20°C° 0 mm 1 m/s 690 mmHg 31%
    15:00 +20°C° 0 mm 1 m/s 690 mmHg 30%
    16:00 +19°C° 0 mm 1 m/s 690 mmHg 32%
    17:00 +18°C° 0 mm 1 m/s 690 mmHg 35%
    18:00 +16°C° 0 mm 1 m/s 690 mmHg 38%
    19:00 +16°C° 0 mm 1 m/s 691 mmHg 39%
    20:00 +15°C° 0 mm 1 m/s 691 mmHg 41%
    21:00 +15°C° 0 mm 1 m/s 691 mmHg 42%
    22:00 +14°C° 0 mm 1 m/s 691 mmHg 44%
    23:00 +14°C° 0 mm 1 m/s 691 mmHg 45%

    Poimâine, 19 Octombrie, Joi

    Timp Temperatura Precipitaţii Vânt Presiune Umiditate
    00:00 +13°C° 0 mm 1 m/s 691 mmHg 47%
    01:00 +13°C° 0 mm 1 m/s 691 mmHg 48%
    02:00 +13°C° 0 mm 1 m/s 691 mmHg 50%
    03:00 +12°C° 0 mm 1 m/s 691 mmHg 51%
    04:00 +12°C° 0 mm 1 m/s 691 mmHg 52%
    05:00 +11°C° 0 mm 1 m/s 691 mmHg 54%
    06:00 +11°C° 0 mm 1 m/s 691 mmHg 55%
    07:00 +13°C° 0 mm 1 m/s 691 mmHg 48%
    08:00 +14°C° 0 mm 0 m/s 691 mmHg 42%
    09:00 +16°C° 0 mm 0 m/s 692 mmHg 36%
    10:00 +19°C° 0 mm 1 m/s 692 mmHg 33%
    11:00 +20°C° 0 mm 1 m/s 691 mmHg 30%
    12:00 +21°C° 0 mm 1 m/s 691 mmHg 26%
    13:00 +22°C° 0 mm 1 m/s 691 mmHg 25%
    14:00 +22°C° 0 mm 1 m/s 690 mmHg 24%
    15:00 +22°C° 0 mm 1 m/s 690 mmHg 23%
    16:00 +21°C° 0 mm 1 m/s 690 mmHg 26%
    17:00 +20°C° 0 mm 1 m/s 690 mmHg 28%
    18:00 +19°C° 0 mm 1 m/s 690 mmHg 31%
    19:00 +18°C° 0 mm 1 m/s 690 mmHg 32%
    20:00 +16°C° 0 mm 1 m/s 690 mmHg 34%
    21:00 +16°C° 0 mm 1 m/s 690 mmHg 35%
    22:00 +15°C° 0 mm 1 m/s 689 mmHg 36%
    23:00 +15°C° 0 mm 1 m/s 689 mmHg 37%

    20 Octombrie, Vineri

    Timp Temperatura Precipitaţii Vânt Presiune Umiditate
    00:00 +14°C° 0 mm 1 m/s 689 mmHg 38%
    01:00 +14°C° 0 mm 1 m/s 689 mmHg 39%
    02:00 +13°C° 0 mm 1 m/s 688 mmHg 39%
    03:00 +13°C° 0 mm 1 m/s 688 mmHg 40%
    04:00 +12°C° 0 mm 1 m/s 688 mmHg 41%
    05:00 +12°C° 0 mm 1 m/s 688 mmHg 41%
    06:00 +11°C° 0 mm 1 m/s 688 mmHg 42%
    07:00 +13°C° 0 mm 1 m/s 688 mmHg 37%
    08:00 +15°C° 0 mm 1 m/s 689 mmHg 32%
    09:00 +18°C° 0 mm 1 m/s 689 mmHg 27%
    10:00 +19°C° 0 mm 1 m/s 689 mmHg 25%
    11:00 +20°C° 0 mm 1 m/s 689 mmHg 23%
    12:00 +20°C° 0 mm 2 m/s 688 mmHg 21%
    13:00 +20°C° 0 mm 2 m/s 688 mmHg 21%
    14:00 +21°C° 0 mm 2 m/s 688 mmHg 20%
    15:00 +21°C° 0 mm 2 m/s 688 mmHg 19%
    16:00 +20°C° 0 mm 2 m/s 688 mmHg 22%
    17:00 +19°C° 0 mm 1 m/s 688 mmHg 24%
    18:00 +18°C° 0 mm 1 m/s 688 mmHg 27%
    19:00 +16°C° 0 mm 1 m/s 688 mmHg 28%
    20:00 +15°C° 0 mm 0 m/s 688 mmHg 29%
    21:00 +14°C° 0 mm 0 m/s 688 mmHg 31%
    22:00 +13°C° 0 mm 0 m/s 688 mmHg 31%
    23:00 +13°C° 0 mm 0 m/s 688 mmHg 31%

    21 Octombrie, Sâmbătă

    Timp Temperatura Precipitaţii Vânt Presiune Umiditate
    00:00 +13°C° 0 mm 1 m/s 688 mmHg 32%
    01:00 +13°C° 0 mm 1 m/s 688 mmHg 33%
    02:00 +13°C° 0 mm 1 m/s 688 mmHg 34%
    03:00 +12°C° 0 mm 1 m/s 688 mmHg 34%
    04:00 +12°C° 0 mm 1 m/s 688 mmHg 36%
    05:00 +11°C° 0 mm 1 m/s 688 mmHg 37%
    06:00 +10°C° 0 mm 0 m/s 688 mmHg 38%
    07:00 +12°C° 0 mm 0 m/s 688 mmHg 35%
    08:00 +15°C° 0 mm 1 m/s 689 mmHg 31%
    09:00 +18°C° 0 mm 1 m/s 689 mmHg 27%
    10:00 +19°C° 0 mm 1 m/s 689 mmHg 26%
    11:00 +20°C° 0 mm 1 m/s 689 mmHg 25%
    12:00 +20°C° 0 mm 1 m/s 689 mmHg 24%
    13:00 +20°C° 0 mm 2 m/s 689 mmHg 24%
    14:00 +20°C° 0 mm 2 m/s 688 mmHg 23%
    15:00 +20°C° 0 mm 2 m/s 688 mmHg 23%
    16:00 +20°C° 0 mm 1 m/s 688 mmHg 26%
    17:00 +19°C° 0 mm 1 m/s 688 mmHg 28%
    18:00 +18°C° 0 mm 1 m/s 688 mmHg 31%
    19:00 +16°C° 0 mm 1 m/s 688 mmHg 32%
    20:00 +15°C° 0 mm 1 m/s 689 mmHg 34%
    21:00 +15°C° 0 mm 1 m/s 689 mmHg 35%
    22:00 +14°C° 0 mm 1 m/s 688 mmHg 37%
    23:00 +14°C° 0 mm 1 m/s 688 mmHg 38%

    22 Octombrie, Duminică

    Timp Temperatura Precipitaţii Vânt Presiune Umiditate
    00:00 +13°C° 0 mm 1 m/s 688 mmHg 40%
    01:00 +13°C° 0 mm 1 m/s 688 mmHg 41%
    02:00 +12°C° 0 mm 1 m/s 687 mmHg 42%
    03:00 +11°C° 0 mm 0 m/s 687 mmHg 44%
    04:00 +10°C° 0 mm 0 m/s 687 mmHg 45%
    05:00 +10°C° 0 mm 0 m/s 687 mmHg 46%
    06:00 +10°C° 0 mm 0 m/s 687 mmHg 47%
    07:00 +12°C° 0 mm 0 m/s 687 mmHg 41%
    08:00 +14°C° 0 mm 0 m/s 688 mmHg 35%
    09:00 +16°C° 0 mm 0 m/s 688 mmHg 29%
    10:00 +19°C° 0 mm 1 m/s 688 mmHg 26%
    11:00 +20°C° 0 mm 1 m/s 687 mmHg 24%
    12:00 +21°C° 0 mm 1 m/s 687 mmHg 21%
    13:00 +20°C° 0 mm 2 m/s 686 mmHg 21%
    14:00 +20°C° 0 mm 2 m/s 686 mmHg 20%
    15:00 +21°C° 0 mm 2 m/s 685 mmHg 19%
    16:00 +19°C° 0 mm 2 m/s 685 mmHg 22%
    17:00 +19°C° 0 mm 1 m/s 685 mmHg 24%
    18:00 +18°C° 0 mm 1 m/s 685 mmHg 27%
    19:00 +16°C° 0 mm 1 m/s 685 mmHg 28%
    20:00 +15°C° 0 mm 1 m/s 685 mmHg 29%
    21:00 +15°C° 0 mm 1 m/s 685 mmHg 30%
    22:00 +14°C° 0 mm 1 m/s 685 mmHg 31%
    23:00 +14°C° 0 mm 1 m/s 685 mmHg 32%
    Arată mai mult